Norfolk, VA

4:54 PM EDT on April 24, 2018 (GMT -0400)
Norfolk International

Weather History for KORF - November, 2013

Change the Weather History Date:

Saturday, November 16, 2013

  Actual Average Record
Temperature  
Mean Temperature 57 °F 53 °F  
Max Temperature 61 °F 61 °F 83 °F (1955)
Min Temperature 52 °F 45 °F 25 °F (1967)
Degree Days  
Heating Degree Days 8 12  
Month to date heating degree days 186 166  
Since 1 July heating degree days 306 323  
Cooling Degree Days 0 0  
Month to date cooling degree days 8 1  
Year to date cooling degree days 1753 1621  
Growing Degree Days 6 (Base 50)    
Moisture  
Dew Point 52 °F    
Average Humidity 81    
Maximum Humidity 100    
Minimum Humidity 62    
Precipitation  
Precipitation 0.02 in 0.10 in 1.91 in (1994)
Month to date precipitation 0.98 1.71  
Year to date precipitation 39.31 41.83  
Snow  
Snow 0.00 in 0.00 in 0.00 in (2002)
Month to date snowfall 0.0 0.0  
Since 1 July snowfall 0.0 0.0  
Snow Depth 0.00 in    
Sea Level Pressure  
Sea Level Pressure 30.27 in    
Wind  
Wind Speed 6 mph (NNE)    
Max Wind Speed 9 mph    
Max Gust Speed -    
Visibility 10 miles    
Events Rain    
T = Trace of Precipitation, MM = Missing Value Source: NWS Daily Summary

Daily Weather History Graph

Daily Weather History Graph

Search for Another Location

Airport or City:

Astronomy

Nov. 16, 2013 Rise Set
Actual Time 6:44 AM EST 4:54 PM EST
Civil Twilight 6:16 AM EST 5:22 PM EST
Nautical Twilight 5:45 AM EST 5:53 PM EST
Astronomical Twilight 5:14 AM EST 6:24 PM EST
Moon 4:27 PM EST (11/16) 5:39 AM EST (11/16)
Length of Visible Light 11h 05m
Length of Day
10h 10m
Waxing Gibbous, 99% of the Moon is Illuminated
Nov 16
Waxing Gibbous
Nov 17
Full
Nov 25
Last Quarter
Dec 2
New
Dec 9
First Quarter

Hourly Weather History & Observations

Time (EST) Temp. Dew Point Humidity Pressure Visibility Wind Dir Wind Speed Gust Speed Precip Events Conditions
12:51 AM 57.9 °F 48.0 °F 70% 30.25 in 10.0 mi South 5.8 mph - N/A   Overcast
1:51 AM 57.9 °F 53.1 °F 84% 30.23 in 10.0 mi South 4.6 mph - 0.02 in Rain Light Rain
2:51 AM 55.9 °F 53.1 °F 90% 30.24 in 10.0 mi SW 6.9 mph - 0.00 in   Mostly Cloudy
3:51 AM 55.9 °F 54.0 °F 93% 30.23 in 10.0 mi Calm Calm - N/A   Mostly Cloudy
4:51 AM 54.0 °F 53.1 °F 97% 30.25 in 10.0 mi NW 3.5 mph - N/A   Overcast
5:31 AM 53.6 °F 51.8 °F 94% 30.25 in 10.0 mi North 6.9 mph - N/A   Mostly Cloudy
5:51 AM 53.1 °F 48.9 °F 86% 30.25 in 10.0 mi North 9.2 mph - N/A   Mostly Cloudy
6:51 AM 52.0 °F 48.9 °F 89% 30.26 in 8.0 mi NNE 6.9 mph - N/A   Partly Cloudy
7:51 AM 54.0 °F 51.1 °F 90% 30.29 in 10.0 mi North 4.6 mph - N/A   Partly Cloudy
8:44 AM 55.4 °F 51.8 °F 88% 30.30 in 10.0 mi NE 5.8 mph - N/A   Mostly Cloudy
8:51 AM 55.0 °F 52.0 °F 89% 30.30 in 10.0 mi NE 4.6 mph - N/A   Mostly Cloudy
9:14 AM 55.4 °F 53.6 °F 94% 30.30 in - North - - N/A   Unknown
9:51 AM - - N/A% 30.30 in - North - - N/A   Unknown
9:55 AM - - N/A% 30.30 in - North - - N/A   Unknown
10:51 AM - - N/A% 30.30 in - North - - N/A   Unknown
11:51 AM 59.0 °F 53.6 °F 82% 30.26 in 10.0 mi ENE 9.2 mph - N/A   Overcast
12:51 PM - - N/A% 30.27 in - North - - N/A   Unknown
1:51 PM - - N/A% 30.26 in - North - - N/A   Unknown
2:44 PM 60.8 °F 55.4 °F 82% 30.25 in 10.0 mi NE 8.1 mph - N/A   Overcast
2:51 PM 60.8 °F 55.4 °F 82% 30.25 in 10.0 mi NE 8.1 mph - N/A   Overcast
3:51 PM 60.8 °F 55.4 °F 82% 30.31 in 10.0 mi NE 6.9 mph - N/A   Overcast
4:51 PM 60.8 °F 55.4 °F 82% 30.31 in 10.0 mi NE 6.9 mph - N/A   Overcast
4:58 PM - - N/A% - 10.0 mi North - - N/A   Unknown
5:16 PM - - N/A% 30.25 in 10.0 mi NE 5.8 mph - N/A   Overcast
5:51 PM - - N/A% 30.26 in 10.0 mi NE 5.8 mph - N/A   Overcast
5:58 PM - - N/A% - 10.0 mi North - - N/A   Unknown
6:51 PM - - N/A% - 10.0 mi North - - N/A   Unknown
7:51 PM - - N/A% - 10.0 mi North - - N/A   Unknown
8:51 PM - - N/A% - 10.0 mi North - - N/A   Unknown
9:51 PM - - N/A% - 10.0 mi North - - N/A   Unknown
10:51 PM - - N/A% - 10.0 mi North - - N/A   Unknown
11:51 PM - - N/A% - 10.0 mi North - - N/A   Unknown